Location: Unspecified
(52.1971°N, 0.0000°E)
Time: 15:53:37
(UTC+00:00)

YUBILEINY - Pass Details

Date: 20 December 2019
Orbit: 1478 x 1509 km, 82.5° (Epoch: 29 January)

Event Time Altitude Azimuth Distance (km) Brightness Sun altitude
Rises 07:04:24 0° 348° (NNW) 4,613 ? -8.7°
Reaches altitude 10° 07:07:18 10° 350° (N) 3,630 ? -8.3°
Maximum altitude 07:16:03 82° 78° (ENE) 1,502 ? -7.2°
Drops below altitude 10° 07:24:48 10° 167° (SSE) 3,624 ? -6.0°
Sets 07:27:40 0° 168° (SSE) 4,604 ? -5.6°
